Wind_Speed
4 4 4 4 4 3 3 3 3 3 2 2 2 2 2 2 2 3 2 2 2 2 2 2 2 2 2 1 0 1 1 2 2 2 3 4 5 5 5 5 4 5 6
5 4 4 4 4 4 4 3 3 4 3 3 3 2 2 2 2 2 2 2 2 2 3 2 2 2 2 1 1 1 2 2 3 3 3 4 5 5 5 5 5 6 6
5 5 4 4 5 5 5 5 4 4 4 3 3 3 3 3 3 3 2 3 3 3 3 2 2 2 2 2 2 2 2 3 3 3 4 5 5 6 5 6 6 6 7
5 5 5 5 6 6 6 6 5 5 5 4 4 4 4 4 4 4 4 3 3 4 3 3 3 3 3 3 2 2 3 4 3 3 4 5 5 6 6 6 6 7 7
5 5 6 6 6 6 6 6 6 6 5 5 5 4 4 5 5 5 5 4 4 5 5 4 4 4 4 3 3 3 4 4 4 4 5 5 5 7 7 6 6 8 8
5 6 6 6 6 6 7 7 7 7 6 6 6 5 5 5 6 6 5 5 5 5 6 6 5 5 5 5 5 5 5 5 5 5 5 4 5 6 7 7 7 8 8
6 6 7 7 7 7 8 8 8 8 8 8 7 6 6 6 6 6 6 6 5 6 6 6 6 6 6 6 6 7 6 6 5 5 5 5 5 6 6 7 7 7 8
7 7 7 8 8 8 8 9 9 8 8 7 7 7 7 7 6 6 6 6 6 6 7 7 7 6 6 7 7 6 7 6 6 6 5 5 6 6 6 6 7 7 7
8 7 8 8 9 9 9 9 9 8 8 7 7 7 7 7 8 8 7 7 7 7 7 7 7 8 7 7 7 7 8 7 7 7 6 5 7 7 7 6 7 7 7
9 8 9 9 9 9 9 9 9 9 8 8 8 8 8 8 8 8 8 8 8 7 7 7 7 8 9 9 8 7 7 7 6 7 7 7 7 8 7 6 6 6 7
10 10 9 9 9 10 10 10 9 9 8 8 8 8 8 8 8 8 8 8 8 8 8 8 8 8 8 9 9 8 7 7 7 7 7 8 9 8 8 7 7 7 7
10 10 9 10 10 10 10 10 10 9 8 9 9 9 9 9 9 8 8 8 9 9 8 8 8 8 8 8 9 9 8 8 8 8 7 8 8 8 8 8 8 7 8
11 11 10 10 11 11 11 11 11 10 9 9 9 9 10 10 10 9 9 9 10 10 9 9 9 9 8 8 8 9 9 9 9 9 8 8 8 9 8 8 8 8 8
11 10 11 10 11 11 11 12 11 12 11 10 10 10 10 11 11 11 10 10 10 10 11 10 10 10 10 9 9 9 9 10 10 10 9 9 8 9 9 8 8 8 8
12 11 12 12 12 12 12 12 12 12 12 11 11 11 11 11 11 11 11 11 11 11 11 11 11 11 10 10 10 10 10 10 11 10 9 9 10 9 9 8 8 7 8
12 11 12 12 13 13 13 12 13 13 13 13 13 12 12 12 12 12 12 12 12 12 12 12 12 12 12 12 12 12 12 12 10 10 11 10 9 9 8 8 8 8 9
12 12 13 13 14 14 14 13 13 14 14 14 13 12 12 12 12 13 13 12 12 12 12 12 13 13 13 13 13 13 13 12 12 12 12 11 10 10 10 10 9 9 9
13 13 13 14 14 14 14 14 14 14 15 14 13 13 13 14 14 14 13 13 13 13 13 13 14 15 14 14 14 14 13 13 13 13 13 12 11 11 11 11 11 10 11
15 14 14 15 15 15 15 15 15 15 15 15 14 14 13 14 14 14 14 13 14 14 14 14 14 14 14 15 15 15 14 14 14 14 13 14 14 13 12 13 12 11 12
16 15 15 15 16 15 16 16 16 16 16 16 15 15 15 15 15 15 14 14 14 15 14 14 14 14 15 15 15 15 15 15 15 15 15 15 15 15 14 13 13 13 13
17 16 16 16 16 16 16 16 16 16 16 16 16 16 16 15 15 15 15 15 15 16 16 15 15 15 16 16 16 16 15 15 15 15 16 16 16 15 15 14 14 14 15
18 17 17 17 17 17 17 16 16 16 17 16 16 16 16 16 17 17 17 16 16 16 16 16 16 16 17 17 17 16 16 16 15 16 16 16 16 16 16 15 15 15 16
18 17 17 17 17 18 18 18 18 17 17 17 16 16 17 17 18 19 18 17 17 17 17 17 17 17 17 17 18 18 18 17 16 17 17 16 17 16 17 17 17 17 18
19 19 18 18 18 17 17 18 17 17 18 17 18 18 19 19 19 19 19 19 18 18 18 19 18 18 18 18 18 18 18 18 18 17 17 17 17 17 18 18 18 19 19
19 19 18 19 19 18 18 17 18 18 18 18 18 19 20 20 19 20 21 20 19 19 19 20 20 19 18 18 18 18 18 18 18 19 18 18 18 18 18 19 19 20 19
19 19 18 18 18 18 18 18 18 18 18 19 19 20 20 20 20 20 21 19 19 19 19 19 19 19 19 19 19 19 19 19 19 18 19 19 19 19 19 19 19 20 20
Wind_Direction
357 357 356 1 2 359 353 348 344 336 321 314 305 297 286 278 275 261 240 232 218 215 210 216 217 226 207 195 175 219 218 238 221 214 217 219 216 213 209 208 211 201 202
348 342 344 355 356 354 351 347 335 328 318 310 304 294 288 279 280 269 240 241 238 235 232 227 229 224 214 226 247 242 232 236 221 213 215 209 213 215 211 217 215 213 209
345 336 332 337 343 344 344 344 331 319 313 309 300 287 278 281 288 278 262 250 247 244 237 228 226 227 233 245 252 254 255 243 234 230 217 209 214 216 214 215 212 213 215
333 329 333 328 328 330 331 331 326 315 309 308 302 291 283 281 281 283 275 272 262 256 251 245 240 244 245 255 260 254 257 257 255 245 230 232 224 214 209 211 215 223 220
327 325 332 331 328 328 329 326 322 317 312 308 298 291 288 283 283 284 281 278 271 264 257 253 255 253 246 247 256 259 260 266 261 255 246 229 221 217 216 222 223 223 220
322 324 323 324 326 328 329 323 317 311 308 302 296 290 290 283 284 283 280 279 273 267 261 259 261 255 249 246 251 254 258 259 267 262 245 220 227 226 224 226 229 224 219
320 324 318 316 325 326 325 322 316 308 305 299 292 288 289 289 282 279 279 278 275 270 264 260 261 258 251 246 247 250 251 249 252 251 241 236 243 237 231 231 231 229 226
315 323 320 320 324 326 325 322 317 309 306 301 294 293 292 292 290 287 285 278 274 271 269 262 258 258 255 249 247 248 248 245 246 250 247 250 245 238 232 234 230 236 235
306 313 316 319 321 323 325 325 319 309 305 299 297 296 291 288 287 287 285 281 272 270 270 267 262 261 255 248 247 246 245 245 253 254 248 241 244 249 251 247 246 245 244
301 306 313 317 320 320 322 325 321 313 305 299 297 296 293 291 288 285 285 282 274 272 271 272 266 263 260 254 249 247 249 249 257 257 256 253 256 260 257 253 255 252 246
298 305 309 311 313 317 319 321 320 317 309 302 297 294 293 291 286 282 281 279 276 275 273 272 268 260 257 254 252 253 255 254 254 257 259 264 264 263 262 255 254 253 245
298 302 306 307 309 314 317 319 317 315 309 301 295 295 297 293 288 283 277 280 272 274 275 272 265 262 262 261 261 259 256 256 258 259 264 270 266 264 261 257 258 252 243
295 300 305 307 308 311 314 316 316 311 307 304 298 297 298 297 294 288 281 280 279 278 276 271 268 266 266 265 264 261 258 256 260 261 264 267 270 272 266 264 260 255 244
291 296 300 304 307 308 311 313 315 313 307 304 301 299 301 300 295 289 282 279 278 277 274 270 269 264 263 261 262 260 261 264 265 262 260 264 271 274 270 268 263 261 246
293 298 299 302 306 307 308 308 310 310 306 302 303 298 297 297 294 289 285 281 277 275 272 269 266 263 264 264 264 263 264 267 267 263 261 264 266 265 267 267 270 260 244
290 294 296 299 304 306 307 306 306 308 304 304 305 301 295 296 293 290 286 283 280 277 273 269 268 266 265 264 263 265 268 267 265 263 263 265 264 257 259 267 267 258 246
287 293 296 298 302 305 307 305 305 307 306 306 306 303 297 295 294 291 287 282 279 278 275 272 268 269 266 264 265 266 267 267 263 263 263 265 264 254 256 263 263 264 259
282 288 294 296 297 301 303 304 304 304 306 303 304 305 300 295 293 291 286 282 278 278 277 276 271 271 270 266 264 264 264 265 266 267 263 261 261 257 257 258 263 265 263
280 284 290 292 295 299 301 301 303 305 307 305 305 306 300 295 292 290 286 284 281 280 278 276 272 270 268 268 265 263 262 263 263 266 266 264 264 264 263 257 257 261 260
278 282 286 288 291 296 299 298 300 301 304 303 303 306 303 298 294 290 287 283 277 276 275 274 275 274 271 270 266 265 264 265 264 264 264 264 263 263 263 259 255 258 259
279 280 282 285 289 293 295 296 299 300 301 302 301 300 299 298 295 291 289 286 279 276 274 273 274 273 273 272 271 268 266 267 268 267 266 265 262 263 263 263 263 263 264
280 281 281 283 287 291 293 294 295 296 299 301 301 299 296 297 296 293 292 288 283 277 274 271 272 273 274 273 272 270 266 263 264 265 265 265 264 266 262 262 264 267 271
278 279 282 284 285 287 290 291 292 295 299 302 301 299 298 296 294 292 290 289 285 278 274 272 273 273 272 274 272 270 269 266 265 265 263 265 265 264 264 264 264 268 269
275 277 280 283 284 287 290 292 293 295 296 299 300 300 298 297 293 290 290 287 282 279 276 275 275 273 271 271 272 270 268 268 268 268 267 266 263 263 265 264 266 271 274
274 278 279 280 282 284 286 291 295 296 297 297 297 299 299 301 299 294 289 286 283 279 276 275 273 271 269 269 269 267 266 267 269 268 269 268 266 265 266 267 268 271 273
275 279 280 278 279 281 283 287 293 296 296 297 298 300 300 299 299 296 291 287 285 282 278 276 271 270 269 269 267 265 265 266 266 268 267 267 267 269 270 271 271 272 272
Height
5884 5883 5883 5883 5882 5882 5881 5881 5880 5879 5879 5878 5878 5877 5877 5876 5876 5875 5875 5875 5874 5874 5874 5874 5875 5875 5875 5875 5875 5876 5876 5876 5877 5877 5877 5877 5878 5878 5880 5881 5881 5882 5884
5885 5884 5883 5883 5882 5882 5881 5881 5880 5879 5879 5878 5877 5877 5877 5876 5875 5875 5875 5875 5875 5874 5874 5875 5875 5875 5875 5875 5875 5875 5876 5876 5876 5877 5877 5877 5878 5878 5879 5880 5881 5882 5883
5885 5884 5884 5883 5883 5882 5881 5881 5880 5879 5878 5878 5877 5877 5876 5876 5875 5875 5875 5874 5874 5874 5874 5874 5875 5875 5875 5875 5875 5875 5875 5875 5876 5877 5877 5877 5878 5878 5879 5880 5881 5882 5883
5885 5884 5884 5883 5883 5882 5881 5881 5880 5879 5878 5878 5877 5876 5876 5876 5875 5875 5874 5874 5874 5874 5874 5874 5874 5875 5875 5875 5875 5875 5875 5875 5876 5876 5877 5877 5877 5878 5879 5880 5881 5882 5883
5885 5884 5884 5883 5882 5881 5881 5880 5879 5879 5878 5877 5877 5876 5876 5875 5875 5875 5874 5874 5874 5874 5874 5874 5874 5874 5874 5875 5875 5875 5875 5876 5876 5876 5876 5876 5877 5878 5879 5880 5881 5882 5883
5885 5884 5883 5883 5882 5881 5880 5879 5879 5878 5877 5877 5876 5876 5875 5875 5874 5874 5874 5874 5873 5873 5873 5873 5873 5873 5874 5874 5874 5874 5875 5875 5875 5876 5876 5876 5877 5877 5878 5879 5880 5881 5882
5885 5884 5883 5882 5882 5881 5880 5879 5878 5877 5877 5876 5875 5875 5874 5874 5874 5873 5873 5873 5873 5873 5873 5873 5873 5873 5873 5873 5873 5874 5874 5874 5875 5875 5875 5876 5876 5877 5877 5878 5879 5880 5881
5884 5884 5882 5882 5881 5880 5879 5878 5877 5876 5876 5875 5874 5874 5874 5873 5873 5873 5872 5872 5872 5872 5872 5872 5872 5872 5871 5872 5872 5873 5873 5874 5874 5875 5875 5875 5875 5876 5877 5877 5878 5879 5880
5883 5883 5882 5881 5880 5879 5878 5877 5876 5875 5875 5874 5874 5873 5873 5872 5872 5872 5871 5871 5871 5871 5871 5871 5871 5871 5870 5871 5871 5872 5872 5873 5874 5874 5874 5874 5874 5875 5876 5877 5877 5878 5879
5882 5882 5881 5880 5879 5878 5877 5876 5875 5874 5873 5873 5873 5872 5872 5871 5871 5870 5870 5870 5870 5869 5869 5869 5870 5870 5869 5869 5870 5871 5871 5872 5872 5873 5873 5873 5873 5874 5875 5876 5876 5877 5878
5881 5880 5880 5879 5878 5877 5876 5875 5874 5873 5872 5872 5872 5871 5871 5870 5870 5869 5869 5868 5868 5868 5868 5868 5868 5868 5868 5868 5869 5869 5870 5871 5871 5872 5872 5872 5873 5873 5873 5874 5875 5875 5876
5880 5879 5879 5878 5877 5877 5876 5875 5873 5872 5872 5871 5871 5870 5869 5869 5868 5868 5867 5867 5866 5867 5867 5867 5867 5867 5867 5868 5868 5868 5869 5869 5870 5871 5871 5871 5871 5871 5872 5872 5872 5873 5873
5878 5878 5878 5877 5876 5876 5875 5874 5873 5872 5871 5870 5869 5868 5868 5867 5867 5866 5866 5865 5865 5865 5865 5865 5865 5865 5866 5866 5867 5867 5867 5868 5868 5869 5869 5870 5869 5869 5870 5870 5870 5870 5871
5875 5875 5875 5875 5875 5874 5874 5873 5871 5870 5869 5868 5868 5867 5866 5866 5865 5864 5864 5864 5864 5864 5863 5863 5864 5864 5864 5865 5865 5866 5866 5866 5866 5867 5867 5868 5867 5868 5868 5868 5867 5867 5868
5874 5873 5874 5874 5874 5873 5872 5871 5870 5869 5868 5867 5866 5865 5864 5864 5863 5862 5862 5862 5862 5862 5861 5862 5862 5862 5862 5863 5863 5864 5864 5864 5864 5865 5865 5865 5866 5866 5866 5866 5866 5865 5866
5872 5872 5872 5872 5872 5871 5870 5869 5868 5867 5866 5865 5864 5863 5862 5861 5861 5860 5860 5859 5859 5859 5859 5860 5860 5860 5860 5861 5861 5861 5862 5862 5862 5863 5863 5863 5864 5864 5865 5865 5865 5865 5865
5870 5870 5871 5870 5870 5869 5868 5867 5866 5865 5864 5863 5862 5861 5859 5859 5859 5858 5857 5857 5857 5857 5857 5857 5857 5857 5857 5858 5858 5858 5859 5859 5860 5860 5861 5861 5862 5862 5863 5863 5863 5864 5864
5869 5869 5869 5869 5868 5867 5866 5865 5864 5863 5862 5860 5860 5859 5857 5857 5856 5856 5855 5855 5854 5854 5854 5854 5854 5854 5855 5855 5856 5856 5856 5857 5857 5858 5858 5859 5860 5860 5861 5861 5861 5862 5863
5867 5867 5867 5866 5866 5865 5864 5863 5862 5861 5860 5858 5857 5856 5855 5854 5854 5853 5852 5852 5852 5851 5851 5851 5852 5851 5852 5852 5852 5853 5853 5854 5854 5855 5856 5856 5857 5858 5858 5859 5859 5860 5861
5864 5864 5864 5864 5863 5862 5861 5860 5859 5859 5858 5856 5855 5854 5853 5852 5851 5850 5849 5849 5848 5849 5848 5848 5848 5848 5849 5849 5849 5849 5850 5850 5851 5851 5852 5853 5853 5854 5855 5856 5856 5857 5858
5860 5861 5861 5861 5861 5860 5859 5858 5857 5856 5855 5854 5853 5852 5850 5849 5848 5847 5846 5845 5845 5845 5845 5845 5845 5845 5845 5845 5845 5846 5846 5846 5847 5848 5848 5849 5849 5850 5851 5852 5853 5854 5855
5857 5858 5858 5858 5858 5857 5856 5855 5854 5853 5852 5851 5850 5849 5847 5846 5844 5843 5842 5842 5841 5841 5841 5841 5841 5841 5841 5841 5841 5841 5842 5843 5843 5844 5844 5845 5845 5846 5847 5848 5849 5850 5851
5854 5854 5855 5854 5854 5854 5853 5852 5851 5850 5849 5848 5847 5845 5844 5842 5841 5839 5838 5838 5837 5837 5836 5836 5836 5836 5836 5836 5836 5837 5837 5838 5838 5839 5840 5841 5841 5842 5843 5844 5845 5846 5846
5850 5850 5851 5851 5850 5850 5849 5849 5848 5847 5846 5845 5843 5842 5840 5838 5836 5835 5834 5833 5832 5832 5831 5831 5831 5831 5831 5831 5831 5831 5832 5833 5834 5835 5835 5836 5837 5837 5839 5839 5840 5841 5842
5846 5846 5847 5847 5846 5846 5846 5845 5844 5843 5842 5841 5839 5838 5836 5834 5832 5831 5829 5828 5827 5827 5826 5826 5826 5825 5826 5826 5826 5827 5827 5828 5829 5829 5830 5831 5832 5833 5834 5834 5835 5836 5836
5841 5842 5842 5843 5842 5842 5841 5841 5840 5840 5838 5837 5836 5834 5832 5829 5828 5826 5824 5823 5822 5821 5821 5820 5820 5820 5820 5820 5821 5822 5822 5823 5824 5824 5825 5826 5827 5828 5829 5829 5830 5831 5831